Language: 


Des rapports , des résumés tant et plus, au choix de chacun....


Données Historiques de Météogheer
Journalier Rapport pour Aoûut 16, 2017 Unitée:  Impériale    Métrique   Les deux
Suivant Jour »
Journalier Hebdomadaire Mensuel Annuel Sur mesure
  Max: Min: Moyenne:
Température: 79 °F 32 °F 65.1 °F
Point de rosée: 66.2 °F 51.8 °F 57.6 °F
Humidité: 98% 0% 79%
Vent: 10.3mph 0mph 1.4mph
Rafales: 11.2mph - -
Vent- - WSW
Pression: 30.2 in 0 in -
Pluie: 0 in    
Historical Graphs
 
 
Données tabulaires pour Aoûut 16, 2017
Heure Température Point de rosée Pression Vent Vent Rafales Humidité Pluie Taux (Horaire) Conditions
00:03 58.8 °F 57.2 °F 30.1 in Calm   4.5 mph 93% 0 in
00:08 58.8 °F 57.2 °F 30.1 in Calm   4.5 mph 94% 0 in
00:13 58.6 °F 57.2 °F 30.1 in Calm   4 mph 94% 0 in
00:18 58.5 °F 57.2 °F 30.1 in Calm   3.4 mph 94% 0 in
00:23 58.3 °F 57.2 °F 30.1 in Calm   3.4 mph 94% 0 in
00:28 58.3 °F 57.2 °F 30.1 in Calm     94% 0 in
00:29 58.1 °F 57.2 °F 30.1 in Calm     94% 0 in
00:34 58.1 °F 57.2 °F 30.1 in Calm   3.6 mph 94% 0 in
00:39 58.1 °F 57.2 °F 30.1 in WSW 4 mph 4 mph 94% 0 in
00:44 58.1 °F 57.2 °F 30.1 in Calm   4 mph 95% 0 in
00:50 57.9 °F 57.2 °F 30.1 in Calm   4 mph 95% 0 in
00:55 57.9 °F 57.2 °F 30.1 in Calm   3.6 mph 95% 0 in
01:00 58.1 °F 57.2 °F 30.1 in Calm   4 mph 95% 0 in
01:05 58.1 °F 57.2 °F 30.1 in Calm   4 mph 96% 0 in
01:10 58.1 °F 57.2 °F 30.1 in Calm   1.6 mph 95% 0 in
01:15 57.9 °F 57.2 °F 30.1 in Calm     95% 0 in
01:20 57.9 °F 57.2 °F 30.1 in Calm     95% 0 in
01:25 57.6 °F 57.2 °F 30.1 in Calm     95% 0 in
01:30 57.4 °F 55.4 °F 30.1 in Calm     95% 0 in
01:35 57.2 °F 55.4 °F 30.1 in Calm     95% 0 in
01:40 57.2 °F 55.4 °F 30.1 in Calm     95% 0 in
01:45 57 °F 57.2 °F 30.1 in Calm   1.3 mph 96% 0 in
01:50 56.8 °F 55.4 °F 30.1 in Calm   2.5 mph 96% 0 in
01:55 57 °F 57.2 °F 30.1 in Calm   3.1 mph 96% 0 in
02:00 57 °F 57.2 °F 30.1 in Calm   3.1 mph 96% 0 in
02:05 57 °F 57.2 °F 30.1 in Calm   3.6 mph 96% 0 in
02:10 57.2 °F 57.2 °F 30.1 in Calm   3.6 mph 96% 0 in
02:15 57.4 °F 57.2 °F 30.1 in SW 0.9 mph 3.8 mph 97% 0 in
02:20 57.4 °F 57.2 °F 30.1 in WSW 3.1 mph 6.3 mph 97% 0 in
02:26 57.6 °F 57.2 °F 30.1 in SW 3.6 mph 6.3 mph 97% 0 in
02:31 57.6 °F 57.2 °F 30.1 in Calm   4 mph 97% 0 in
02:36 57.2 °F 57.2 °F 30.1 in Calm   3.8 mph 97% 0 in
02:41 57 °F 57.2 °F 30.1 in Calm   2.7 mph 97% 0 in
02:46 56.8 °F 55.4 °F 30.1 in Calm   2.7 mph 97% 0 in
02:51 56.8 °F 55.4 °F 30.1 in Calm     97% 0 in
02:56 56.7 °F 55.4 °F 30.1 in Calm   3.4 mph 97% 0 in
03:01 32 °F 55.4 °F 0 in Calm   3.4 mph 0% 0 in
03:06 56.7 °F 55.4 °F 30.1 in Calm   5.6 mph 97% 0 in
03:11 56.7 °F 55.4 °F 30.1 in Calm   5.6 mph 97% 0 in
03:16 56.5 °F 55.4 °F 30.1 in Calm   1.3 mph 97% 0 in
03:22 56.5 °F 55.4 °F 30.1 in Calm   1.3 mph 97% 0 in
03:27 56.3 °F 55.4 °F 30.1 in Calm     97% 0 in
03:32 55.9 °F 55.4 °F 30.1 in Calm   2.5 mph 97% 0 in
03:37 55.8 °F 55.4 °F 30.1 in Calm   2.5 mph 97% 0 in
03:42 55.8 °F 55.4 °F 30.1 in Calm   2.5 mph 97% 0 in
03:47 55.8 °F 55.4 °F 30.1 in Calm   2.5 mph 97% 0 in
03:52 55.6 °F 55.4 °F 30.1 in Calm     97% 0 in
03:57 55.4 °F 55.4 °F 30.1 in Calm     97% 0 in
04:02 55.4 °F 55.4 °F 30.1 in Calm     97% 0 in
04:07 55.2 °F 55.4 °F 30.1 in Calm     98% 0 in
04:12 55 °F 55.4 °F 30.1 in Calm     98% 0 in
04:17 55 °F 55.4 °F 30.1 in Calm     98% 0 in
04:22 55 °F 55.4 °F 30.1 in Calm     98% 0 in
04:27 54.9 °F 55.4 °F 30.1 in Calm     98% 0 in
04:32 54.5 °F 55.4 °F 30.1 in Calm     98% 0 in
04:38 54.3 °F 55.4 °F 30.1 in Calm     98% 0 in
04:43 54.3 °F 55.4 °F 30.1 in Calm     98% 0 in
04:48 54.1 °F 55.4 °F 30.1 in Calm     98% 0 in
04:53 54 °F 53.6 °F 30.1 in Calm     98% 0 in
04:58 53.8 °F 53.6 °F 30.1 in Calm     98% 0 in
05:03 53.8 °F 53.6 °F 30.1 in Calm     98% 0 in
05:08 53.6 °F 53.6 °F 30.1 in Calm     98% 0 in
05:09 53.6 °F 53.6 °F 30.1 in Calm     98% 0 in
05:14 53.8 °F 53.6 °F 30.1 in Calm   3.1 mph 98% 0 in
05:19 53.8 °F 53.6 °F 30.1 in Calm   3.1 mph 98% 0 in
05:21 53.8 °F 53.6 °F 30.1 in Calm   3.1 mph 98% 0 in
05:22 53.8 °F 53.6 °F 30.1 in Calm     98% 0 in
05:26 53.6 °F 53.6 °F 30.1 in Calm     98% 0 in
05:31 53.8 °F 53.6 °F 30.1 in Calm   2.2 mph 98% 0 in
05:36 54 °F 53.6 °F 30.1 in Calm   2.2 mph 98% 0 in
05:41 53.8 °F 53.6 °F 30.1 in Calm   0.9 mph 98% 0 in
05:46 53.6 °F 53.6 °F 30.1 in Calm   0.9 mph 98% 0 in
05:52 53.6 °F 53.6 °F 30.1 in Calm     98% 0 in
05:57 53.1 °F 53.6 °F 30.1 in Calm     98% 0 in
06:02 52.9 °F 53.6 °F 30.1 in Calm     98% 0 in
06:07 52.5 °F 51.8 °F 30.1 in Calm     98% 0 in
06:12 52.2 °F 51.8 °F 30.1 in Calm     98% 0 in
06:17 52 °F 51.8 °F 30.1 in Calm     98% 0 in
06:22 51.8 °F 51.8 °F 30.1 in Calm     98% 0 in
06:27 52 °F 51.8 °F 30.1 in Calm     98% 0 in
06:32 52.3 °F 51.8 °F 30.1 in South 2.9 mph 2.9 mph 98% 0 in
06:37 52.7 °F 53.6 °F 30.1 in Calm   3.4 mph 98% 0 in
06:42 52.9 °F 53.6 °F 30.1 in Calm   3.4 mph 98% 0 in
06:47 53.1 °F 53.6 °F 30.1 in Calm   1.3 mph 98% 0 in
06:52 53.4 °F 53.6 °F 30.1 in Calm   1.3 mph 98% 0 in
06:57 53.8 °F 53.6 °F 30.1 in Calm   1.3 mph 98% 0 in
06:58 53.8 °F 53.6 °F 30.1 in South 1.1 mph 1.3 mph 98% 0 in
07:03 54 °F 53.6 °F 30.1 in Calm   1.1 mph 98% 0 in
07:08 54.3 °F 55.4 °F 30.1 in Calm   0.9 mph 98% 0 in
07:13 54.5 °F 55.4 °F 30.1 in Calm   0.9 mph 98% 0 in
07:18 54.7 °F 55.4 °F 30.1 in Calm   0.9 mph 98% 0 in
07:23 55.2 °F 55.4 °F 30.1 in Calm   0.9 mph 98% 0 in
07:28 55.8 °F 55.4 °F 30.1 in Calm   2.7 mph 98% 0 in
07:33 56.3 °F 57.2 °F 30.1 in Calm   2.7 mph 98% 0 in
07:38 56.8 °F 57.2 °F 30.1 in WSW 1.1 mph 2.5 mph 98% 0 in
07:43 57 °F 57.2 °F 30.1 in Calm   3.8 mph 98% 0 in
07:48 57.4 °F 57.2 °F 30.1 in Calm   3.8 mph 98% 0 in
07:53 57.7 °F 57.2 °F 30.1 in Calm   2 mph 98% 0 in
07:58 57.9 °F 57.2 °F 30.2 in Calm     98% 0 in
08:03 58.1 °F 59 °F 30.2 in Calm     98% 0 in
08:08 58.3 °F 59 °F 30.2 in Calm     98% 0 in
08:13 58.5 °F 59 °F 30.1 in Calm     98% 0 in
08:18 58.8 °F 59 °F 30.1 in Calm     98% 0 in
08:24 58.8 °F 59 °F 30.1 in Calm   0.9 mph 98% 0 in
08:29 59.4 °F 59 °F 30.2 in South 2.2 mph 2.2 mph 98% 0 in
08:34 59.7 °F 59 °F 30.2 in Calm   3.6 mph 98% 0 in
08:39 60.3 °F 60.8 °F 30.2 in Calm   3.6 mph 98% 0 in
08:44 60.6 °F 60.8 °F 30.2 in Calm   1.1 mph 98% 0 in
08:49 61.2 °F 60.8 °F 30.2 in Calm     98% 0 in
08:54 61.7 °F 60.8 °F 30.2 in Calm   3.6 mph 97% 0 in
08:59 61.9 °F 60.8 °F 30.2 in Calm   3.6 mph 97% 0 in
09:04 62.4 °F 62.6 °F 30.2 in Calm   2.2 mph 97% 0 in
09:09 62.4 °F 62.6 °F 30.2 in Calm   3.1 mph 97% 0 in
09:14 63 °F 62.6 °F 30.2 in Calm   3.1 mph 96% 0 in
09:19 63.5 °F 62.6 °F 30.2 in Calm   4.3 mph 96% 0 in
09:24 63.9 °F 62.6 °F 30.2 in Calm   4.3 mph 96% 0 in
09:29 64.2 °F 64.4 °F 30.2 in Calm   3.1 mph 96% 0 in
09:34 65.1 °F 64.4 °F 30.2 in WSW 2.7 mph 3.8 mph 95% 0 in
09:39 65.7 °F 64.4 °F 30.2 in West 2.7 mph 5.8 mph 95% 0 in
09:44 66 °F 64.4 °F 30.2 in Calm   5.8 mph 94% 0 in
09:49 66.6 °F 64.4 °F 30.2 in Calm   5.8 mph 94% 0 in
09:54 66.6 °F 64.4 °F 30.2 in West 2.2 mph 6.3 mph 93% 0 in
10:00 66.7 °F 64.4 °F 30.2 in Calm   6.3 mph 92% 0 in
10:05 67.5 °F 64.4 °F 30.2 in West 5.8 mph 5.8 mph 92% 0 in
10:10 66.9 °F 64.4 °F 30.2 in West 2.5 mph 6.5 mph 91% 0 in
10:15 66.9 °F 64.4 °F 30.2 in WSW 3.1 mph 6.5 mph 91% 0 in
10:20 66.7 °F 64.4 °F 30.2 in Calm   3.8 mph 90% 0 in
10:25 66.7 °F 64.4 °F 30.2 in West 6.3 mph 6.3 mph 90% 0 in
10:30 66.4 °F 62.6 °F 30.2 in WSW 3.4 mph 6.3 mph 89% 0 in
10:35 66.4 °F 62.6 °F 30.2 in WSW 4.7 mph 6.3 mph 89% 0 in
10:40 66.7 °F 64.4 °F 30.2 in WSW 4.5 mph 6.3 mph 90% 0 in
10:45 67.1 °F 64.4 °F 30.2 in WSW 5.4 mph 7.6 mph 89% 0 in
10:50 66.9 °F 64.4 °F 30.2 in Calm   7.6 mph 89% 0 in
10:55 66.7 °F 64.4 °F 30.2 in West 2.5 mph 4.9 mph 89% 0 in
11:00 66.9 °F 64.4 °F 30.2 in West 3.6 mph 4.3 mph 90% 0 in
11:05 66.9 °F 64.4 °F 30.2 in Calm   6.3 mph 89% 0 in
11:10 67.1 °F 64.4 °F 30.2 in SSW 2.7 mph 6.3 mph 90% 0 in
11:15 67.6 °F 64.4 °F 30.2 in Calm   4.3 mph 90% 0 in
11:20 68.7 °F 66.2 °F 30.2 in Calm   4.3 mph 89% 0 in
11:25 69.4 °F 66.2 °F 30.2 in Calm   4 mph 88% 0 in
11:30 69.4 °F 64.4 °F 30.2 in Calm   4 mph 86% 0 in
11:35 69.4 °F 64.4 °F 30.2 in Calm   4 mph 85% 0 in
11:40 70.2 °F 66.2 °F 30.2 in Calm   4 mph 85% 0 in
11:45 70.9 °F 66.2 °F 30.2 in SSW 3.1 mph 3.6 mph 84% 0 in
11:50 70.9 °F 64.4 °F 30.2 in Calm   3.6 mph 81% 0 in
11:55 71.6 °F 66.2 °F 30.2 in Calm   3.6 mph 80% 0 in
12:00 71.8 °F 64.4 °F 30.2 in Calm   3.6 mph 79% 0 in
12:05 71.4 °F 64.4 °F 30.2 in Calm   5.4 mph 78% 0 in
12:10 71.4 °F 64.4 °F 30.2 in WSW 2.2 mph 5.6 mph 77% 0 in
12:15 72.1 °F 64.4 °F 30.2 in WSW 4 mph 5.6 mph 77% 0 in
12:20 72.1 °F 64.4 °F 30.2 in WSW 3.4 mph 5.4 mph 75% 0 in
12:25 71.8 °F 62.6 °F 30.2 in Calm   5.4 mph 74% 0 in
12:30 72 °F 64.4 °F 30.2 in West 4 mph 6.5 mph 75% 0 in
12:35 71.8 °F 62.6 °F 30.2 in SW 5.8 mph 6.5 mph 74% 0 in
12:40 71.6 °F 62.6 °F 30.2 in Calm   5.8 mph 72% 0 in
12:45 71.8 °F 62.6 °F 30.2 in WSW 3.6 mph 5.8 mph 73% 0 in
12:50 72 °F 62.6 °F 30.2 in Calm   4.9 mph 72% 0 in
12:55 72 °F 62.6 °F 30.2 in Calm   4.9 mph 70% 0 in
13:00 71.8 °F 60.8 °F 30.2 in Calm   6.3 mph 70% 0 in
13:06 72.1 °F 62.6 °F 30.2 in Calm   6.3 mph 72% 0 in
13:11 72.1 °F 62.6 °F 30.2 in SW 4 mph 4.7 mph 70% 0 in
13:16 72.1 °F 62.6 °F 30.2 in WSW 6.3 mph 6.3 mph 71% 0 in
13:21 72.3 °F 62.6 °F 30.2 in Calm   6.3 mph 71% 0 in
13:26 72.1 °F 60.8 °F 30.2 in SW 3.8 mph 6.3 mph 69% 0 in
13:31 72.3 °F 60.8 °F 30.2 in South 0.9 mph 6.3 mph 69% 0 in
13:36 73 °F 62.6 °F 30.2 in SW 5.8 mph 5.8 mph 69% 0 in
13:41 74.8 °F 64.4 °F 30.2 in South 2.7 mph 5.8 mph 69% 0 in
13:46 75.6 °F 64.4 °F 30.2 in WSW 0.9 mph 5.4 mph 67% 0 in
13:51 76.1 °F 64.4 °F 30.2 in Calm   5.8 mph 66% 0 in
13:56 75.9 °F 62.6 °F 30.2 in WSW 3.8 mph 6.9 mph 64% 0 in
14:01 73.8 °F 60.8 °F 30.2 in Calm   6.9 mph 63% 0 in
14:06 73.2 °F 60.8 °F 30.2 in West 4.5 mph 5.8 mph 65% 0 in
14:11 73.2 °F 60.8 °F 30.2 in Calm   5.8 mph 66% 0 in
14:16 73 °F 60.8 °F 30.1 in Calm   4.5 mph 66% 0 in
14:21 72.9 °F 60.8 °F 30.1 in Calm   4.5 mph 66% 0 in
14:26 72.5 °F 60.8 °F 30.1 in Calm   5.6 mph 67% 0 in
14:31 72.9 °F 60.8 °F 30.1 in SSW 3.8 mph 5.6 mph 67% 0 in
14:36 73.4 °F 60.8 °F 30.1 in Calm   5.8 mph 66% 0 in
14:41 73.9 °F 62.6 °F 30.1 in WSW 5.4 mph 7.4 mph 65% 0 in
14:46 73.8 °F 60.8 °F 30.1 in West 5.6 mph 7.4 mph 64% 0 in
14:51 73.6 °F 59 °F 30.1 in WSW 6.5 mph 7.8 mph 62% 0 in
14:56 73.8 °F 60.8 °F 30.2 in West 6.9 mph 7.8 mph 62% 0 in
15:01 73.8 °F 59 °F 30.2 in SSW 0.9 mph 7.8 mph 61% 0 in
15:06 73.9 °F 59 °F 30.2 in SSW 2.5 mph 7.8 mph 59% 0 in
15:12 74.3 °F 59 °F 30.1 in SW 3.4 mph 7.6 mph 59% 0 in
15:17 76.5 °F 60.8 °F 30.1 in West 3.8 mph 7.4 mph 58% 0 in
15:22 77.2 °F 59 °F 30.1 in WSW 7.8 mph 7.8 mph 55% 0 in
15:27 75.7 °F 57.2 °F 30.1 in SW 3.4 mph 7.8 mph 51% 0 in
15:32 76.3 °F 55.4 °F 30.1 in WSW 4.3 mph 7.6 mph 47% 0 in
15:37 77.5 °F 57.2 °F 30.1 in WSW 6.3 mph 7.6 mph 50% 0 in
15:42 77.2 °F 55.4 °F 30.1 in WSW 7.4 mph 10.1 mph 47% 0 in
15:47 77.2 °F 55.4 °F 30.1 in West 4.3 mph 10.1 mph 46% 0 in
15:52 77.2 °F 55.4 °F 30.1 in West 3.8 mph 9.2 mph 47% 0 in
15:57 77.2 °F 55.4 °F 30.1 in WSW 0.9 mph 9.8 mph 48% 0 in
15:58 77.4 °F 57.2 °F 30.1 in West 4.7 mph 9.8 mph 49% 0 in
16:03 78.4 °F 57.2 °F 30.1 in WSW 4 mph 9.8 mph 47% 0 in
16:08 77.5 °F 55.4 °F 30.1 in SSW 6.5 mph 8.1 mph 44% 0 in
16:13 77.2 °F 55.4 °F 30.1 in WSW 4.7 mph 8.1 mph 47% 0 in
16:18 77.4 °F 57.2 °F 30.1 in WSW 7.8 mph 7.8 mph 49% 0 in
16:24 77.2 °F 57.2 °F 30.1 in West 7.8 mph 7.8 mph 49% 0 in
16:29 77.2 °F 55.4 °F 30.1 in WSW 6.3 mph 7.8 mph 47% 0 in
16:34 76.8 °F 55.4 °F 30.1 in West 2.7 mph 6.3 mph 46% 0 in
16:39 76.6 °F 53.6 °F 30.1 in West 6 mph 7.2 mph 45% 0 in
16:44 77.5 °F 55.4 °F 30.1 in WSW 5.4 mph 7.4 mph 45% 0 in
16:49 77.9 °F 55.4 °F 30.1 in West 5.8 mph 7.8 mph 44% 0 in
16:54 78.3 °F 55.4 °F 30.1 in West 3.4 mph 7.8 mph 44% 0 in
16:59 79 °F 55.4 °F 30.1 in WSW 4 mph 6 mph 45% 0 in
17:04 79 °F 55.4 °F 30.1 in SSW 5.4 mph 6.3 mph 45% 0 in
17:09 79 °F 55.4 °F 30.1 in WSW 4 mph 6.3 mph 43% 0 in
17:14 78.8 °F 55.4 °F 30.1 in Calm   7.6 mph 43% 0 in
17:19 77.9 °F 55.4 °F 30.1 in WSW 3.8 mph 8.7 mph 45% 0 in
17:24 77.9 °F 55.4 °F 30.1 in WSW 4.5 mph 8.7 mph 44% 0 in
17:29 77.7 °F 53.6 °F 30.1 in WSW 4.7 mph 8.7 mph 43% 0 in
17:34 77.2 °F 55.4 °F 30.1 in WSW 3.4 mph 9.6 mph 46% 0 in
17:39 77.4 °F 55.4 °F 30.1 in Calm   9.6 mph 46% 0 in
17:44 77.5 °F 55.4 °F 30.1 in West 4.3 mph 8.5 mph 45% 0 in
17:49 77.5 °F 55.4 °F 30.1 in WSW 4.9 mph 8.5 mph 45% 0 in
17:54 77.4 °F 55.4 °F 30.1 in WSW 4.9 mph 8.5 mph 45% 0 in
17:55 77.4 °F 55.4 °F 30.1 in WSW 10.3 mph 10.3 mph 45% 0 in
18:00 77.4 °F 55.4 °F 30.1 in West 2.5 mph 10.5 mph 46% 0 in
18:05 77.5 °F 55.4 °F 30.1 in West 7.4 mph 10.5 mph 46% 0 in
18:10 77.5 °F 55.4 °F 30.1 in WSW 5.6 mph 8.1 mph 46% 0 in
18:15 77.4 °F 55.4 °F 30.1 in WSW 4.3 mph 8.1 mph 45% 0 in
18:20 77.5 °F 55.4 °F 30.1 in WSW 7.4 mph 7.8 mph 46% 0 in
18:25 76.6 °F 55.4 °F 30.1 in West 5.6 mph 11.2 mph 46% 0 in
18:30 76.5 °F 55.4 °F 30.1 in West 3.4 mph 11.2 mph 47% 0 in
18:35 77.4 °F 57.2 °F 30.1 in WSW 2.7 mph 8.1 mph 49% 0 in
18:40 77.7 °F 57.2 °F 30.1 in WSW 5.4 mph 7.4 mph 48% 0 in
18:45 77 °F 55.4 °F 30.1 in West 3.8 mph 11 mph 45% 0 in
18:50 76.1 °F 55.4 °F 30.1 in WSW 6.5 mph 11 mph 47% 0 in
18:55 75.6 °F 55.4 °F 30.1 in WSW 3.4 mph 8.7 mph 48% 0 in
19:00 75.7 °F 55.4 °F 30.1 in West 4.5 mph 8.7 mph 47% 0 in
19:05 76.3 °F 55.4 °F 30.1 in WSW 4 mph 8.5 mph 49% 0 in
19:11 76.5 °F 55.4 °F 30.1 in West 7.4 mph 7.4 mph 48% 0 in
19:16 76.3 °F 55.4 °F 30.1 in WSW 4.3 mph 7.4 mph 48% 0 in
19:21 76.1 °F 55.4 °F 30.1 in Calm   6.3 mph 48% 0 in
19:26 76.3 °F 55.4 °F 30.1 in West 2.9 mph 5.8 mph 47% 0 in
19:31 76.5 °F 55.4 °F 30.1 in West 2.5 mph 4.3 mph 47% 0 in
19:36 76.3 °F 55.4 °F 30.1 in West 2.9 mph 4.3 mph 47% 0 in
19:41 76.3 °F 55.4 °F 30.1 in Calm   4.3 mph 49% 0 in
19:46 75.7 °F 55.4 °F 30.1 in Calm   4.3 mph 48% 0 in
19:51 75.4 °F 55.4 °F 30.1 in Calm   4.3 mph 50% 0 in
19:56 74.8 °F 55.4 °F 30.1 in Calm   3.4 mph 50% 0 in
20:01 74.3 °F 55.4 °F 30.1 in Calm   3.1 mph 51% 0 in
20:06 73.8 °F 55.4 °F 30.1 in Calm   3.1 mph 52% 0 in
20:11 73 °F 55.4 °F 30.1 in Calm     53% 0 in
20:16 72.1 °F 55.4 °F 30.1 in Calm     55% 0 in
20:21 71.2 °F 55.4 °F 30.1 in Calm     57% 0 in
20:26 70.5 °F 55.4 °F 30.1 in Calm     59% 0 in
20:31 69.6 °F 55.4 °F 30.1 in Calm     62% 0 in
20:32 69.4 °F 55.4 °F 30.1 in Calm     62% 0 in
20:37 68.9 °F 57.2 °F 30.1 in Calm     64% 0 in
20:42 68 °F 55.4 °F 30.1 in Calm   1.6 mph 64% 0 in
20:47 67.5 °F 55.4 °F 30.1 in Calm   1.6 mph 66% 0 in
20:52 66.9 °F 55.4 °F 30.1 in Calm     67% 0 in
20:57 66.4 °F 55.4 °F 30.1 in Calm     69% 0 in
21:03 65.7 °F 55.4 °F 30.1 in Calm     70% 0 in
21:08 65.3 °F 55.4 °F 30.1 in Calm     71% 0 in
21:13 64.4 °F 55.4 °F 30.1 in Calm     72% 0 in
21:18 63.9 °F 55.4 °F 30.1 in Calm     73% 0 in
21:23 63.5 °F 55.4 °F 30.1 in Calm     74% 0 in
21:28 63 °F 55.4 °F 30.1 in Calm     75% 0 in
21:33 62.6 °F 55.4 °F 30.1 in Calm     75% 0 in
21:38 62.2 °F 55.4 °F 30.1 in Calm     78% 0 in
21:43 62.2 °F 55.4 °F 30.1 in Calm     79% 0 in
21:48 61.9 °F 55.4 °F 30.1 in Calm     79% 0 in
21:53 61.5 °F 55.4 °F 30.1 in Calm     80% 0 in
21:58 61.3 °F 55.4 °F 30.1 in Calm     80% 0 in
22:03 61 °F 55.4 °F 30.1 in Calm     81% 0 in
22:08 60.8 °F 55.4 °F 30.1 in Calm   2.2 mph 82% 0 in
22:13 60.6 °F 55.4 °F 30.1 in Calm   2.2 mph 82% 0 in
22:18 60.6 °F 55.4 °F 30.1 in Calm     83% 0 in
22:23 60.4 °F 55.4 °F 30.1 in Calm     83% 0 in
22:28 60.6 °F 55.4 °F 30.1 in Calm   2.2 mph 83% 0 in
22:33 61 °F 55.4 °F 30.1 in Calm   2.7 mph 83% 0 in
22:38 61 °F 55.4 °F 30.1 in Calm   3.8 mph 83% 0 in
22:43 61 °F 55.4 °F 30.1 in Calm   3.8 mph 83% 0 in
22:48 61 °F 55.4 °F 30.1 in Calm     83% 0 in
22:53 61.2 °F 55.4 °F 30.1 in Calm     83% 0 in
22:59 61.2 °F 55.4 °F 30.1 in Calm     83% 0 in
23:04 61.2 °F 55.4 °F 30.1 in Calm     83% 0 in
23:09 61.5 °F 55.4 °F 30.1 in Calm   2.7 mph 83% 0 in
23:14 61.5 °F 55.4 °F 30.1 in ESE 2.9 mph 2.9 mph 83% 0 in
23:19 61.5 °F 55.4 °F 30.1 in Calm   4.3 mph 83% 0 in
23:24 61.5 °F 55.4 °F 30.1 in Calm   4.3 mph 83% 0 in
23:29 61.5 °F 55.4 °F 30.1 in Calm     83% 0 in
23:34 61.3 °F 55.4 °F 30.1 in Calm     83% 0 in
23:39 61.2 °F 55.4 °F 30.1 in Calm     83% 0 in
23:44 61.2 °F 55.4 °F 30 in Calm     83% 0 in
23:49 61 °F 55.4 °F 30 in Calm     83% 0 in
23:54 61 °F 55.4 °F 30 in Calm   2.5 mph 84% 0 in
23:59 61.2 °F 57.2 °F 30 in Calm   2.5 mph 84% 0 in
Données Historique de Météo Turbie

Mise a jour : 23/06/2018 07:54:11
Généré par Cumulus 1.9.4 (1099)